Change the Weather History Date:

Monday, February 3, 2014

  Actual Average Record
Temperature  
Mean Temperature 31 °F -  
Max Temperature 32 °F 57 °F 80 °F (1987)
Min Temperature 30 °F 22 °F 0 °F (1951)
Degree Days  
Heating Degree Days 34    
Moisture  
Dew Point 32 °F    
Average Humidity 100    
Maximum Humidity 100    
Minimum Humidity 100    
Precipitation  
Precipitation 0.00 in - - ()
Sea Level Pressure  
Sea Level Pressure 29.95 in    
Wind  
Wind Speed 12 mph (SSE)    
Max Wind Speed 17 mph    
Max Gust Speed 22 mph    
Visibility 3 miles    
Events Fog , Snow    
Averages and records for this station are not official NWS values.
T = Trace of Precipitation, MM = Missing Value Source: NWS Daily Summary

Daily Weather History Graph

Daily Weather History Graph

Search for Another Location

Airport or City:

Trip Planner

Search our weather history database for the weather conditions in past years. The results will help you decide how hot, cold, wet, or windy it might be!

Date:

Astronomy

Feb. 03, 2014 Rise Set
Actual Time 6:51 AM MST 5:32 PM MST
Civil Twilight 6:25 AM MST 5:58 PM MST
Nautical Twilight 5:56 AM MST 6:27 PM MST
Astronomical Twilight 5:27 AM MST 6:56 PM MST
Moon 9:11 AM MST (2/3) 10:06 PM MST (2/3)
Length of Visible Light 11h 32m
Length of Day
10h 40m
Waxing Crescent, 20% of the Moon is Illuminated
Feb 3
Waxing Crescent
Feb 6
First Quarter
Feb 14
Full
Feb 22
Last Quarter
Mar 1
New

Hourly Weather History & Observations

Time (MST) Temp. Windchill Dew Point Humidity Pressure Visibility Wind Dir Wind Speed Gust Speed Precip Events Conditions
12:15 AM 32.0 °F 21.6 °F 32.0 °F 100% 30.10 in 9.0 mi South 15.0 mph - N/A   Overcast
12:35 AM 32.0 °F 22.1 °F 32.0 °F 100% 30.09 in 8.0 mi South 13.8 mph - N/A   Overcast
12:55 AM 32.0 °F 21.6 °F 32.0 °F 100% 30.09 in 8.0 mi SSE 15.0 mph 21.9 mph N/A   Overcast
1:15 AM 32.0 °F 22.5 °F 32.0 °F 100% 30.09 in 7.0 mi South 12.7 mph - N/A   Overcast
1:35 AM 32.0 °F 22.1 °F 32.0 °F 100% 30.08 in 7.0 mi SSE 13.8 mph - N/A   Overcast
1:55 AM 32.0 °F 22.5 °F 32.0 °F 100% 30.06 in 8.0 mi South 12.7 mph 17.3 mph N/A   Overcast
2:15 AM 32.0 °F 22.5 °F 32.0 °F 100% 30.05 in 8.0 mi SSE 12.7 mph - N/A   Overcast
2:35 AM 32.0 °F 21.2 °F 32.0 °F 100% 30.03 in 6.0 mi SSE 16.1 mph - N/A   Overcast
2:55 AM 32.0 °F 23.0 °F 32.0 °F 100% 30.05 in 5.0 mi SSE 11.5 mph - N/A   Overcast
3:15 AM 30.2 °F 19.3 °F 30.2 °F 100% 30.05 in 4.0 mi SSE 15.0 mph - N/A   Overcast
3:35 AM 30.2 °F 19.8 °F 30.2 °F 100% 30.05 in 3.0 mi SSE 13.8 mph 18.4 mph N/A   Overcast
3:55 AM 30.2 °F 21.3 °F 30.2 °F 100% 30.05 in 3.0 mi SSE 10.4 mph - N/A   Overcast
4:15 AM 30.2 °F 18.9 °F 30.2 °F 100% 30.05 in 5.0 mi SSE 16.1 mph 20.7 mph N/A   Overcast
4:35 AM 30.2 °F 18.9 °F 30.2 °F 100% 30.03 in 3.0 mi SSE 16.1 mph - N/A   Overcast
4:55 AM 32.0 °F 20.8 °F 32.0 °F 100% 30.02 in 3.0 mi SSE 17.3 mph 21.9 mph N/A   Overcast
5:15 AM 30.2 °F 19.8 °F 30.2 °F 100% 30.02 in 3.0 mi SSE 13.8 mph 19.6 mph N/A   Overcast
5:35 AM 32.0 °F 22.5 °F 32.0 °F 100% 30.04 in 3.0 mi South 12.7 mph - N/A   Overcast
5:55 AM 32.0 °F 21.6 °F 32.0 °F 100% 30.04 in 3.0 mi SSE 15.0 mph - N/A   Overcast
6:15 AM 32.0 °F 23.0 °F 32.0 °F 100% 30.04 in 3.0 mi SSE 11.5 mph 17.3 mph N/A   Overcast
6:35 AM 32.0 °F 22.5 °F 32.0 °F 100% 30.04 in 2.0 mi SSE 12.7 mph - N/A   Overcast
6:55 AM 32.0 °F 23.6 °F 32.0 °F 100% 30.04 in 1.2 mi SSE 10.4 mph - N/A   Overcast
7:15 AM 32.0 °F 23.6 °F 32.0 °F 100% 30.04 in 1.2 mi SSE 10.4 mph - N/A   Overcast
7:35 AM 32.0 °F 22.5 °F 32.0 °F 100% 30.04 in 1.8 mi SSE 12.7 mph - N/A   Overcast
7:55 AM 32.0 °F 22.1 °F 32.0 °F 100% 30.04 in 1.2 mi SSE 13.8 mph - N/A   Overcast
8:15 AM 32.0 °F 22.5 °F 32.0 °F 100% 30.05 in 3.0 mi SSE 12.7 mph - N/A   Overcast
8:35 AM 32.0 °F 23.0 °F 32.0 °F 100% 30.06 in 2.0 mi SSE 11.5 mph - N/A   Overcast
8:55 AM 32.0 °F 23.6 °F 32.0 °F 100% 30.05 in 1.2 mi SSE 10.4 mph - N/A   Overcast
9:15 AM 32.0 °F 22.1 °F 32.0 °F 100% 30.05 in 0.2 mi SSE 13.8 mph - N/A Fog Light Freezing Fog
9:35 AM 32.0 °F 23.0 °F 32.0 °F 100% 30.05 in 0.2 mi SSE 11.5 mph - N/A Fog Light Freezing Fog
9:55 AM 32.0 °F 22.5 °F 32.0 °F 100% 30.04 in 0.2 mi SSE 12.7 mph - N/A Fog Light Freezing Fog
10:15 AM 32.0 °F 22.1 °F 32.0 °F 100% 30.03 in 0.2 mi SSE 13.8 mph - N/A Fog Light Freezing Fog
10:35 AM 32.0 °F 22.1 °F 32.0 °F 100% 30.03 in 0.2 mi SE 13.8 mph - N/A Fog Light Freezing Fog
10:55 AM 32.0 °F 22.5 °F 32.0 °F 100% 30.01 in 0.2 mi SSE 12.7 mph - N/A Fog Light Freezing Fog
11:15 AM 32.0 °F 21.2 °F 32.0 °F 100% 30.00 in 0.8 mi SSE 16.1 mph - N/A   Overcast
11:35 AM 32.0 °F 22.1 °F 32.0 °F 100% 29.98 in 1.2 mi SSE 13.8 mph - N/A   Overcast
11:55 AM 32.0 °F 21.6 °F 32.0 °F 100% 29.96 in 1.2 mi SSE 15.0 mph - N/A   Overcast
12:15 PM 32.0 °F 21.6 °F 32.0 °F 100% 29.94 in 2.5 mi SSE 15.0 mph - N/A   Overcast
12:35 PM 32.0 °F 22.1 °F 32.0 °F 100% 29.92 in 5.0 mi SSE 13.8 mph - N/A   Overcast
12:55 PM 32.0 °F 22.5 °F 32.0 °F 100% 29.91 in 4.0 mi SSE 12.7 mph - N/A   Overcast
1:15 PM 32.0 °F 22.5 °F 32.0 °F 100% 29.89 in 0.8 mi SSE 12.7 mph - N/A   Overcast
1:35 PM 32.0 °F 22.1 °F 32.0 °F 100% 29.87 in 0.5 mi SE 13.8 mph - N/A Fog Fog
1:55 PM 32.0 °F 23.0 °F 32.0 °F 100% 29.87 in 0.8 mi SSE 11.5 mph - N/A   Overcast
2:15 PM 32.0 °F 23.0 °F 32.0 °F 100% 29.86 in 1.2 mi SSE 11.5 mph - N/A   Overcast
2:35 PM 32.0 °F 22.1 °F 32.0 °F 100% 29.85 in 2.5 mi SSE 13.8 mph - N/A   Overcast
2:55 PM 32.0 °F 23.0 °F 32.0 °F 100% 29.85 in 3.0 mi SSE 11.5 mph - N/A   Overcast
3:15 PM 32.0 °F 22.5 °F 32.0 °F 100% 29.85 in 1.2 mi SSE 12.7 mph - N/A   Overcast
3:35 PM 32.0 °F 23.6 °F 32.0 °F 100% 29.85 in 0.5 mi SSE 10.4 mph - N/A Fog Fog
3:55 PM 32.0 °F 24.2 °F 32.0 °F 100% 29.85 in 4.0 mi SSE 9.2 mph - N/A   Overcast
4:15 PM 32.0 °F 27.5 °F 32.0 °F 100% 29.85 in 2.5 mi SSE 4.6 mph - N/A   Overcast
4:35 PM 32.0 °F 25.6 °F 32.0 °F 100% 29.85 in 5.0 mi SSE 6.9 mph - N/A   Overcast
4:55 PM 32.0 °F 25.6 °F 32.0 °F 100% 29.84 in 2.5 mi SSE 6.9 mph - N/A   Overcast
5:15 PM 32.0 °F 27.5 °F 32.0 °F 100% 29.85 in 1.8 mi South 4.6 mph - N/A   Overcast
5:35 PM 32.0 °F 25.6 °F 32.0 °F 100% 29.84 in 2.5 mi SSE 6.9 mph - N/A   Overcast
5:55 PM 32.0 °F 25.6 °F 32.0 °F 100% 29.85 in 5.0 mi SE 6.9 mph - N/A   Overcast
6:15 PM 32.0 °F 25.6 °F 32.0 °F 100% 29.85 in 4.0 mi SE 6.9 mph - N/A   Overcast
6:35 PM 32.0 °F 26.4 °F 32.0 °F 100% 29.85 in 3.0 mi SSE 5.8 mph - N/A   Overcast
6:55 PM 32.0 °F 24.8 °F 32.0 °F 100% 29.84 in 3.0 mi SE 8.1 mph - N/A   Overcast
7:15 PM 32.0 °F 24.8 °F 32.0 °F 100% 29.84 in 2.5 mi SSE 8.1 mph - N/A   Overcast
7:35 PM 32.0 °F 24.8 °F 32.0 °F 100% 29.84 in 2.0 mi SSE 8.1 mph - N/A   Overcast
7:55 PM 32.0 °F 26.4 °F 32.0 °F 100% 29.85 in 1.5 mi SE 5.8 mph - N/A   Overcast
8:15 PM 32.0 °F 25.6 °F 32.0 °F 100% 29.85 in 3.0 mi SSE 6.9 mph - N/A   Overcast
8:35 PM 32.0 °F 25.6 °F 32.0 °F 100% 29.85 in 2.5 mi SE 6.9 mph - N/A   Overcast
8:55 PM 32.0 °F 23.6 °F 32.0 °F 100% 29.84 in 0.5 mi SE 10.4 mph - N/A Fog Light Freezing Fog
9:15 PM 32.0 °F 26.4 °F 32.0 °F 100% 29.86 in 0.5 mi South 5.8 mph - N/A Fog Light Freezing Fog
9:35 PM 32.0 °F 24.8 °F 32.0 °F 100% 29.83 in 0.5 mi SE 8.1 mph - N/A Fog Light Freezing Fog
9:55 PM 32.0 °F 27.5 °F 32.0 °F 100% 29.84 in 0.5 mi East 4.6 mph - N/A Fog Light Freezing Fog
10:15 PM 32.0 °F - 32.0 °F 100% 29.86 in 1.2 mi Calm Calm - N/A   Overcast
10:35 PM 32.0 °F 25.6 °F 32.0 °F 100% 29.85 in 2.0 mi South 6.9 mph - N/A   Overcast
10:55 PM 32.0 °F 23.0 °F 32.0 °F 100% 29.83 in 2.0 mi SE 11.5 mph - N/A   Overcast
11:15 PM 32.0 °F 22.5 °F 32.0 °F 100% 29.86 in 1.2 mi South 12.7 mph - N/A   Overcast
11:35 PM 32.0 °F 22.5 °F 32.0 °F 100% 29.80 in 1.5 mi ESE 12.7 mph - N/A Snow Light Snow
11:55 PM 32.0 °F 22.5 °F 32.0 °F 100% 29.84 in 1.8 mi SSE 12.7 mph - N/A   Overcast